Location: Unspecified
(35.6961°N, 0.0000°E)
Time: 18:37:55
(UTC+00:00)

Vanguard 3 - Pass Details

Date: 27 May 2019
Orbit: 508 x 3263 km, 33.3° (Epoch: 16 June)

Event Time Altitude Azimuth Distance (km) Brightness Sun altitude
Rises 01:32:08 0° 279° (W) 4,771 10.9 -28.8°
Reaches altitude 10° 01:34:59 10° 273° (W) 4,105 10.5 -28.5°
Maximum altitude 01:45:59 44° 206° (SSW) 3,160 9.6 -27.5°
Drops below altitude 10° 02:02:43 10° 142° (SE) 6,082 11.4 -25.8°
Sets 02:08:08 0° 137° (SE) 7,209 11.9 -25.2°
